TimeMST,TemperatureF,Dew PointF,Humidity,Sea Level PressureIn,VisibilityMPH,Wind Direction,Wind SpeedMPH,Gust SpeedMPH,PrecipitationIn,Events,Conditions,WindDirDegrees,DateUTC
12:15 AM,57.2,12.2,17,30.23,10.0,SSE,9.2,-,N/A,,Clear,150,2012-11-16 07:15:00
12:35 AM,55.4,14.0,20,30.22,10.0,SSE,9.2,-,N/A,,Clear,150,2012-11-16 07:35:00
12:55 AM,55.4,14.0,20,30.23,10.0,SSE,10.4,-,N/A,,Clear,150,2012-11-16 07:55:00
1:15 AM,55.4,14.0,20,30.21,10.0,SE,8.1,-,N/A,,Clear,130,2012-11-16 08:15:00
1:35 AM,55.4,14.0,20,30.21,10.0,SE,10.4,-,N/A,,Clear,130,2012-11-16 08:35:00
1:55 AM,57.2,14.0,18,30.21,10.0,SE,9.2,-,N/A,,Clear,130,2012-11-16 08:55:00
2:15 AM,57.2,14.0,18,30.21,10.0,SE,12.7,16.1,N/A,,Clear,130,2012-11-16 09:15:00
2:35 AM,57.2,14.0,18,30.21,10.0,ESE,10.4,-,N/A,,Clear,120,2012-11-16 09:35:00
2:55 AM,59.0,14.0,17,30.21,10.0,ESE,12.7,-,N/A,,Scattered Clouds,120,2012-11-16 09:55:00
3:15 AM,57.2,14.0,18,30.21,10.0,ESE,12.7,-,N/A,,Overcast,120,2012-11-16 10:15:00
3:35 AM,55.4,14.0,20,30.20,10.0,ESE,12.7,-,N/A,,Mostly Cloudy,120,2012-11-16 10:35:00
3:55 AM,55.4,14.0,20,30.20,10.0,SE,11.5,17.3,N/A,,Scattered Clouds,130,2012-11-16 10:55:00
4:15 AM,55.4,14.0,20,30.19,10.0,SE,12.7,17.3,N/A,,Mostly Cloudy,130,2012-11-16 11:15:00
4:35 AM,55.4,14.0,20,30.19,10.0,SE,10.4,-,N/A,,Mostly Cloudy,140,2012-11-16 11:35:00
4:55 AM,53.6,14.0,21,30.19,10.0,SE,11.5,-,N/A,,Clear,140,2012-11-16 11:55:00
5:15 AM,53.6,14.0,21,30.20,10.0,SE,12.7,-,N/A,,Clear,140,2012-11-16 12:15:00
5:35 AM,53.6,14.0,21,30.20,10.0,SE,12.7,19.6,N/A,,Scattered Clouds,140,2012-11-16 12:35:00
5:55 AM,53.6,14.0,21,30.20,10.0,SE,16.1,-,N/A,,Scattered Clouds,130,2012-11-16 12:55:00
6:15 AM,53.6,14.0,21,30.19,10.0,SE,18.4,-,N/A,,Clear,130,2012-11-16 13:15:00
6:35 AM,53.6,14.0,21,30.20,10.0,SE,11.5,-,N/A,,Clear,140,2012-11-16 13:35:00
6:55 AM,55.4,14.0,20,30.21,10.0,SE,17.3,-,N/A,,Clear,130,2012-11-16 13:55:00
7:15 AM,55.4,15.8,21,30.21,10.0,SE,16.1,20.7,N/A,,Clear,130,2012-11-16 14:15:00
7:35 AM,55.4,17.6,23,30.23,10.0,SE,16.1,21.9,N/A,,Clear,130,2012-11-16 14:35:00
7:55 AM,55.4,17.6,23,30.23,10.0,ESE,12.7,20.7,N/A,,Clear,120,2012-11-16 14:55:00
8:15 AM,57.2,15.8,20,30.24,10.0,ESE,18.4,23.0,N/A,,Mostly Cloudy,120,2012-11-16 15:15:00
8:35 AM,59.0,17.6,20,30.24,10.0,ESE,20.7,26.5,N/A,,Overcast,120,2012-11-16 15:35:00
8:55 AM,59.0,15.8,19,30.25,10.0,ESE,23.0,28.8,N/A,,Overcast,120,2012-11-16 15:55:00
9:15 AM,59.0,15.8,19,30.26,10.0,ESE,23.0,27.6,N/A,,Overcast,120,2012-11-16 16:15:00
9:35 AM,60.8,15.8,17,30.26,10.0,ESE,17.3,27.6,N/A,,Overcast,120,2012-11-16 16:35:00
9:55 AM,62.6,17.6,18,30.25,10.0,ESE,24.2,28.8,N/A,,Overcast,120,2012-11-16 16:55:00
10:15 AM,62.6,17.6,18,30.25,10.0,ESE,23.0,32.2,N/A,,Scattered Clouds,120,2012-11-16 17:15:00
10:35 AM,62.6,17.6,18,30.24,10.0,ESE,24.2,32.2,N/A,,Clear,120,2012-11-16 17:35:00
10:55 AM,64.4,19.4,18,30.25,10.0,SE,21.9,31.1,N/A,,Clear,130,2012-11-16 17:55:00
11:15 AM,64.4,19.4,18,30.24,10.0,ESE,20.7,29.9,N/A,,Mostly Cloudy,120,2012-11-16 18:15:00
11:35 AM,66.2,19.4,17,30.23,10.0,ESE,21.9,27.6,N/A,,Scattered Clouds,120,2012-11-16 18:35:00
11:55 AM,68.0,19.4,16,30.23,10.0,ESE,19.6,27.6,N/A,,Clear,120,2012-11-16 18:55:00
12:15 PM,64.4,19.4,18,30.21,10.0,ESE,17.3,23.0,N/A,,Scattered Clouds,110,2012-11-16 19:15:00
12:35 PM,68.0,19.4,16,30.20,10.0,ESE,15.0,-,N/A,,Scattered Clouds,120,2012-11-16 19:35:00
12:55 PM,68.0,19.4,16,30.20,10.0,SE,15.0,21.9,N/A,,Mostly Cloudy,140,2012-11-16 19:55:00
1:15 PM,68.0,19.4,16,30.20,10.0,SE,12.7,21.9,N/A,,Overcast,140,2012-11-16 20:15:00
1:35 PM,68.0,21.2,17,30.19,10.0,SE,10.4,17.3,N/A,,Mostly Cloudy,130,2012-11-16 20:35:00
1:55 PM,68.0,21.2,17,30.19,10.0,SE,10.4,19.6,N/A,,Scattered Clouds,140,2012-11-16 20:55:00
2:15 PM,69.8,21.2,16,30.18,10.0,ESE,12.7,19.6,N/A,,Scattered Clouds,120,2012-11-16 21:15:00
2:35 PM,69.8,21.2,16,30.18,10.0,East,13.8,17.3,N/A,,Scattered Clouds,100,2012-11-16 21:35:00
2:55 PM,71.6,21.2,15,30.17,10.0,ESE,8.1,18.4,N/A,,Clear,120,2012-11-16 21:55:00
3:15 PM,68.0,21.2,17,30.18,10.0,ESE,9.2,16.1,N/A,,Clear,120,2012-11-16 22:15:00
3:35 PM,69.8,21.2,16,30.18,10.0,East,12.7,-,N/A,,Clear,100,2012-11-16 22:35:00
3:55 PM,69.8,21.2,16,30.18,10.0,ESE,11.5,-,N/A,,Clear,110,2012-11-16 22:55:00
4:15 PM,68.0,21.2,17,30.18,10.0,East,9.2,-,N/A,,Clear,100,2012-11-16 23:15:00
4:35 PM,68.0,21.2,17,30.17,10.0,ESE,5.8,-,N/A,,Clear,120,2012-11-16 23:35:00
4:55 PM,66.2,21.2,18,30.16,10.0,East,6.9,-,N/A,,Clear,100,2012-11-16 23:55:00
5:15 PM,64.4,21.2,19,30.16,10.0,ESE,3.5,-,N/A,,Clear,110,2012-11-17 00:15:00
5:35 PM,62.6,21.2,20,30.16,10.0,SE,3.5,-,N/A,,Clear,140,2012-11-17 00:35:00
5:55 PM,62.6,19.4,19,30.17,10.0,SSE,4.6,-,N/A,,Clear,150,2012-11-17 00:55:00
6:15 PM,60.8,19.4,20,30.18,10.0,SSE,4.6,-,N/A,,Clear,160,2012-11-17 01:15:00
6:55 PM,60.8,21.2,22,30.19,10.0,SSE,4.6,-,N/A,,Overcast,160,2012-11-17 01:55:00
7:15 PM,59.0,19.4,22,30.19,10.0,South,6.9,-,N/A,,Scattered Clouds,180,2012-11-17 02:15:00
7:35 PM,57.2,19.4,23,30.20,10.0,South,6.9,-,N/A,,Clear,180,2012-11-17 02:35:00
7:55 PM,55.4,19.4,25,30.19,10.0,SSE,5.8,-,N/A,,Scattered Clouds,160,2012-11-17 02:55:00
8:15 PM,57.2,19.4,23,30.20,10.0,SSE,6.9,-,N/A,,Mostly Cloudy,150,2012-11-17 03:15:00
8:35 PM,57.2,19.4,23,30.21,10.0,SE,5.8,-,N/A,,Overcast,140,2012-11-17 03:35:00
8:55 PM,57.2,19.4,23,30.21,10.0,SSE,5.8,-,N/A,,Overcast,160,2012-11-17 03:55:00
9:15 PM,57.2,21.2,25,30.20,10.0,SSE,4.6,-,N/A,,Overcast,160,2012-11-17 04:15:00
9:35 PM,57.2,21.2,25,30.20,10.0,South,5.8,-,N/A,,Overcast,170,2012-11-17 04:35:00
9:55 PM,55.4,21.2,26,30.21,10.0,South,6.9,-,N/A,,Overcast,170,2012-11-17 04:55:00
10:15 PM,55.4,21.2,26,30.20,10.0,South,8.1,-,N/A,,Overcast,170,2012-11-17 05:15:00
10:35 PM,55.4,19.4,25,30.21,10.0,South,8.1,-,N/A,,Overcast,170,2012-11-17 05:35:00
10:55 PM,57.2,21.2,25,30.21,10.0,South,8.1,-,N/A,,Mostly Cloudy,170,2012-11-17 05:55:00
11:15 PM,55.4,21.2,26,30.21,10.0,South,6.9,-,N/A,,Scattered Clouds,170,2012-11-17 06:15:00
11:35 PM,53.6,19.4,26,30.21,10.0,South,5.8,-,N/A,,Clear,170,2012-11-17 06:35:00
11:55 PM,51.8,19.4,28,30.21,10.0,SSE,5.8,-,N/A,,Clear,160,2012-11-17 06:55:00